NOAA 16 DEB, 41132

Orbit data source: Space-Track

NOAA 16 DEB, 41132 is space debris in SSO originally from a launch on Thu, 21 Sep 2000 UTC launched from the Air Force Western Test Range (AFWTR). Debris objects in space refer to the collection of defunct objects orbiting the Earth. Examples of debris include non-operational satellites, rocket bodies, and fragments generated from explosions, collisions, or faulty payload assembly.

Loading next visibility...
NOAA 16 DEB details
Identifier
41132, 2000-055BP
Orbit
SSO
Last TLE update7 hours ago
Origin
Flag of USNOAA (US)
ManufacturerUnknown
MissionSpacecraft
Bus & MotorUnknown
MassUnknown
Launch date (UTC)
2000-09-21 (24 years ago)
Launch vehicleUnknown
Launch site
Air Force Western Test Range (AFWTR)
Object type
Payload
Rocket body
Debris
Shape & HBRUnknown
Radar Cross SectionSmall (<0.1 m²)

Expand to show TLE details & history

TLE from 7 hours ago
0 NOAA 16 DEB
1 41132U 00055BP  24346.61957493  .00018595  00000-0  51228-2 0  9992
2 41132  98.8430 121.6666 0038947 233.9838 125.7740 14.46451108469245
Epoch: 2024-12-11T14:52Z
Definitive object data (Epoch: 2024-12-11T14:52:11.273Z)
Latitude-0.00009°
Longitude177.80799°
Altitude756.484 km
Speed7.468 km/s
True Right ascension08h 06m 39s
True Declination0° 00' 00"
Sunlit
Object was in full shadow at TLE epoch
Visualization TLE readout
Latitude-3.65029°
Longitude-2.43218°
Altitude722.656 km
Speed7.503 km/s
Apparent Right ascension18h 43m 29s
Apparent Declination-61° 52' 50"
Sunlit
Object is in daylight
Visualization observer readout
Local Sidereal Time20:45:35
Azimuth194.332° SSW
Elevation-14.746°
Doppler factor1
Orbital elements
Apogee altitude762.094 km
Perigee altitude706.692 km
Semi-major axis7,112.53 km
Eccentricity0.0038947
Inclination98.843°
RAAN121.6666°
Arg. of periapsis233.9838°
True anomaly126.13507°
Mean anomaly125.774°
Eccentric anomaly125.95464°
Mean motion3.61832 °/min
BSTAR0.0051228
Orbital period99.49 mins
Loading maneuver chart data...
Loading historical data...
Loading historical data...
Loading historical data...
Loading historical data...
Loading historical data...
Loading historical data...
Loading historical data...

NOAA 16 DEB Visibility forecast

Observer location: undefined°, undefined

Span
Click to sort rows by Start time (UTC) header in descending order
Start Az.
Max El. time (UTC)
Max El. Az.
Max El.
End time (UTC)
End Az.
8 mins2024-12-12 09:15:34.839Z169.787° S2024-12-12 09:19:34.839Z319.331° NNW43.517°2024-12-12 09:23:34.839Z343.914° N
7 mins2024-12-12 21:21:34.839Z48.088° ENE2024-12-12 21:24:34.839Z99.865° ESE25.688°2024-12-12 21:28:34.839Z156.004° SSE
|